Location: A�t �Alizem
(31.2076°N, 8.7872°W)
Time: 03:28:36
(UTC+00:00)

deb Explorer IX - Pass Details

Date: 28 June 2021
Orbit: 541 x 1234 km, 38.9° (Epoch: 30 July)

Event Time Altitude Azimuth Distance (km) Brightness Sun altitude
Exits shadow 03:48:01 - 291° (WNW) 2,752 ? -19.1°
Reaches altitude 10° 03:49:02 10° 289° (WNW) 2,386 ? -18.9°
Maximum altitude 03:54:40 61° 210° (SSW) 1,037 ? -18.1°
Drops below altitude 10° 04:01:29 10° 132° (SE) 2,873 ? -17.0°
Sets 04:04:28 0° 129° (SE) 3,923 ? -16.5°
